Location: Newark
(42.8481°N, 0.4872°E)
Time: 09:24:15
(UTC+00:00)

Vanguard 1 - Pass Details

Date: 01 November 2020
Orbit: 650 x 3833 km, 34.2° (Epoch: 26 November)

Event Time Altitude Azimuth Distance (km) Brightness Sun altitude
Rises 12:56:34 0° 250° (WSW) 7,243 15.0 30.0°
Reaches altitude 10° 13:01:03 10° 248° (WSW) 6,486 15.0 29.7°
Maximum altitude 13:23:32 66° 172° (S) 4,002 14.0 27.9°
Drops below altitude 10° 13:43:34 10° 97° (E) 5,882 13.8 26.0°
Sets 13:47:22 0° 94° (E) 6,573 14.0 25.6°
